Tracking 17884 objects as of 8-December-2016
HD Live streaming from Space Station
objects crossing your sky now

OPS 6182 (DMSP 5D-1 F2)

Track OPS 6182 (DMSP 5D-1 F2) now!
10-day predictions
OPS 6182 (DMSP 5D-1 F2) is classified as:


NORAD ID: 10820
Int'l Code: 1978-042A
Perigee: 776.1 km
Apogee: 788.3 km
Inclination: 98.6 °
Period: 100.3 minutes
Semi major axis: 7153 km
RCS: 4.1055 m2 (large)
Launch date: May 1, 1978
Source: United States (US)
Launch site: AIR FORCE WESTERN TEST RANGE (AFWTR)
Your satellite tracking list
Your tracking list is empty





NASA's NSSDC Master Catalog

Two Line Element Set (TLE):
1 10820U 78042A   16342.20734380  .00000086  00000-0  45767-4 0  9992
2 10820  98.5591 166.0216 0008496 249.7783 110.2489 14.35052496 13816
Source of the keplerian elements: AFSPC